This is the latest recevied weather packets stored in our database for station/object KI6PPU. If no packets are shown the sender has not sent any weather packets the latest 10 day(s).
| Time | Temp. | Humidity | Pressure | Rain* | Wind** | Luminosity | Snow |
|---|---|---|---|---|---|---|---|
| 1777652137 | 20° C | 59% | 1017 hPa | 0 mm | - | 558 W/m² | - |
| 1777651833 | 20° C | 64% | 1017 hPa | 0 mm | - | 338 W/m² | - |
| 1777651531 | 20° C | 65% | 1016.9 hPa | 0 mm | - | 471 W/m² | - |
| 1777651228 | 19.44° C | 63% | 1017 hPa | 0 mm | - | 396 W/m² | - |
| 1777650924 | 19.44° C | 66% | 1016.9 hPa | 0 mm | - | 410 W/m² | - |
| 1777650621 | 18.89° C | 67% | 1017.1 hPa | 0 mm | - | 362 W/m² | - |
| 1777650319 | 18.33° C | 70% | 1016.9 hPa | 0 mm | - | 280 W/m² | - |
| 1777650015 | 18.33° C | 64% | 1017.1 hPa | 0 mm | - | 300 W/m² | - |
| 1777649713 | 17.78° C | 68% | 1016.9 hPa | 0 mm | - | 207 W/m² | - |
| 1777649409 | 18.33° C | 70% | 1017 hPa | 0 mm | - | 250 W/m² | - |
| 1777649106 | 18.33° C | 72% | 1017 hPa | 0 mm | - | 240 W/m² | - |
| 1777648804 | 18.33° C | 68% | 1016.8 hPa | 0 mm | - | 191 W/m² | - |
| 1777648500 | 18.33° C | 72% | 1016.6 hPa | 0 mm | - | 181 W/m² | - |
| 1777648197 | 17.78° C | 75% | 1016.8 hPa | 0 mm | - | 159 W/m² | - |
| 1777647892 | 17.22° C | 74% | 1016.7 hPa | 0 mm | - | 177 W/m² | - |
| 1777647589 | 17.22° C | 75% | 1016.8 hPa | 0 mm | - | 168 W/m² | - |
| 1777647285 | 17.78° C | 71% | 1016.7 hPa | 0 mm | - | 150 W/m² | - |
| 1777646983 | 16.11° C | 77% | 1016.6 hPa | 0 mm | - | 127 W/m² | - |
| 1777646679 | 15° C | 80% | 1016.5 hPa | 0 mm | - | 159 W/m² | - |
| 1777646375 | 14.44° C | 79% | 1016.6 hPa | 0 mm | - | 157 W/m² | - |
| 1777646072 | 15° C | 78% | 1016.6 hPa | 0 mm | - | 154 W/m² | - |
| 1777645768 | 13.89° C | 80% | 1016.5 hPa | 0 mm | - | 172 W/m² | - |
| 1777645466 | 13.33° C | 82% | 1016.4 hPa | 0 mm | - | 84 W/m² | - |
| 1777645161 | 12.22° C | 85% | 1016.3 hPa | 0 mm | - | 76 W/m² | - |
| 1777644858 | 12.78° C | 87% | 1016.4 hPa | 0 mm | - | 69 W/m² | - |
* Rain latest hour (hover to see other rain measurements)
** Current wind speed in m/s (hover to see current wind gust speed)